Theta_e
334 333 334 334 335 334 334 334 336 337 354 360 362 362 363 362 360 358 357 355 353 351 349 346 344 342 342 343 344 346 348 349 345 344 344 344 345 348 351 358 364 366 368 367
339 337 334 334 333 332 333 335 335 335 353 356 359 359 359 357 355 353 351 348 347 345 342 340 339 339 339 339 339 339 339 340 341 341 342 342 339 339 340 341 342 343 347 355
342 338 338 339 336 335 335 334 336 337 339 357 359 358 356 355 352 351 348 346 344 341 339 338 338 338 338 339 340 341 340 341 342 342 341 342 341 341 342 342 342 342 342 343
342 340 342 339 341 339 338 336 338 340 352 355 356 355 352 350 350 348 345 342 340 338 338 337 336 334 336 334 336 337 339 339 339 339 340 340 340 341 341 341 340 340 340 340
343 341 339 337 344 340 339 339 342 343 349 353 353 350 350 347 345 343 341 339 338 336 336 334 332 331 331 332 331 330 331 331 331 332 331 332 335 337 338 339 340 340 338 338
339 341 341 338 343 342 342 344 345 345 349 353 349 353 349 342 341 340 338 337 336 334 333 333 331 330 329 329 328 328 328 326 327 327 330 330 332 332 333 335 336 335 337 337
336 337 336 340 340 339 340 346 345 345 349 348 348 348 345 340 339 336 334 332 330 330 329 329 328 327 327 326 326 326 325 325 326 326 327 328 329 331 335 336 336 338 338 338
336 337 337 336 337 340 348 345 345 346 346 344 345 343 341 338 335 332 330 329 327 326 325 324 324 324 325 325 326 326 327 327 328 328 328 327 328 329 331 333 334 334 336 337
336 338 337 334 339 339 341 344 344 344 343 344 342 340 336 334 332 329 327 326 324 323 323 324 324 325 326 326 327 327 327 328 328 328 328 328 329 330 330 329 330 329 328 328
330 331 335 333 334 336 338 342 341 341 341 339 337 334 332 330 328 326 324 323 323 323 323 324 324 325 326 326 326 326 326 326 326 327 327 327 327 327 327 326 326 326 326 326
331 334 334 333 334 335 336 335 334 333 332 331 330 329 327 326 324 323 323 323 323 323 324 324 325 325 325 324 325 325 325 325 325 325 325 325 325 326 326 326 325 325 326 326
330 333 334 334 333 331 331 331 329 328 326 325 325 324 322 322 322 323 323 323 324 324 324 325 324 324 324 325 325 324 324 323 323 322 322 322 323 325 325 324 323 322 322 321
329 333 333 333 330 329 329 327 325 325 324 323 321 320 321 322 323 322 323 324 324 324 324 323 323 324 323 324 323 323 323 323 323 321 321 323 322 322 323 323 324 324 323 322
329 331 333 331 329 327 324 322 321 321 320 320 320 320 321 322 323 323 323 323 323 323 323 322 322 322 322 321 321 321 322 322 321 321 321 320 321 321 322 323 324 325 325 324
328 330 331 328 325 323 322 321 322 321 321 321 320 321 322 322 322 322 321 320 320 319 319 319 319 318 319 319 319 319 319 321 321 322 320 319 319 320 322 322 322 324 324 325
328 329 327 326 324 323 323 322 323 323 322 321 321 321 320 320 321 320 319 318 317 317 316 316 316 317 318 317 317 317 317 318 319 320 321 320 320 321 322 322 323 324 324 325
327 328 326 324 324 323 323 323 321 321 320 320 320 320 320 320 321 320 319 318 317 316 317 316 316 317 317 317 317 316 317 317 317 318 319 321 321 322 323 322 322 322 323 325
325 325 324 324 324 324 323 321 321 320 321 320 320 319 320 320 320 320 319 318 318 317 316 316 317 316 317 318 317 316 318 320 319 319 319 320 320 321 322 322 322 322 323 325
323 324 323 323 323 323 322 321 320 320 320 319 319 319 319 319 318 318 318 318 318 318 316 316 314 316 316 316 316 316 317 320 321 321 321 321 321 321 322 322 322 322 322 322
323 322 323 322 321 321 321 319 320 320 320 319 319 319 318 318 318 318 319 319 318 317 316 315 316 315 314 315 314 315 315 316 318 319 319 319 320 319 319 320 320 321 322 322
324 322 322 321 321 320 319 319 320 319 319 318 318 318 318 317 318 317 317 318 317 317 316 314 316 316 314 312 313 315 315 315 315 317 318 317 316 316 316 316 316 316 318 320
322 322 321 322 321 320 319 319 319 319 318 318 318 318 317 317 317 316 314 315 316 315 316 316 315 316 314 313 314 314 314 316 316 316 315 314 314 314 315 314 314 315 316 317
321 320 321 321 320 320 319 319 318 318 318 317 317 317 317 316 316 317 315 315 314 315 314 315 317 315 314 313 314 313 313 314 316 316 317 315 313 312 312 311 312 312 313 314
320 321 321 321 320 320 320 319 319 318 318 317 317 318 317 316 315 315 316 314 314 315 314 316 317 316 315 314 312 313 312 312 313 314 315 313 311 311 310 310 310 311 311 312
322 321 321 320 320 319 318 319 318 318 317 318 317 317 317 317 316 315 315 315 314 313 314 316 317 317 315 314 312 310 311 313 314 313 312 312 310 310 309 309 309 308 308 308
321 320 319 319 318 317 317 316 316 316 315 314 313 313 313 313 313 315 314 314 314 313 313 315 317 316 316 315 314 315 315 314 313 314 312 312 310 309 309 309 308 308 308 307
319 318 318 317 317 316 316 316 315 315 314 313 313 313 313 314 315 314 314 315 314 313 313 314 315 317 317 316 316 313 312 314 313 312 312 311 311 308 308 308 308 308 308 308
Wind_Speed
16 16 8 15 12 16 14 16 16 8 4 18 15 16 14 13 13 13 13 13 13 12 12 15 15 17 17 17 17 16 16 14 13 12 11 9 8 7 8 7 6 7 7 8
15 14 12 15 16 17 19 13 17 13 14 16 14 16 15 14 15 15 14 15 14 13 15 15 15 16 17 17 17 15 16 16 13 11 11 10 10 9 7 7 8 9 8 9
15 17 16 13 15 17 17 16 12 10 11 17 16 14 14 14 14 15 15 14 13 12 14 14 14 13 14 13 12 12 10 10 8 6 8 7 9 10 10 10 9 10 11 11
14 16 20 14 5 9 12 11 3 3 5 12 15 14 13 13 14 14 14 14 11 11 12 9 10 9 8 8 6 10 8 7 6 7 9 9 9 12 13 13 13 14 13 13
14 16 18 22 9 11 10 14 10 8 9 11 14 14 11 11 12 12 13 12 11 10 8 7 7 6 6 4 9 9 10 11 12 10 11 12 11 12 14 17 18 17 17 16
13 18 21 17 13 9 6 12 11 11 13 16 15 12 10 12 13 11 11 9 8 6 4 5 4 5 6 5 5 7 10 13 13 14 16 17 16 16 18 18 23 21 20 19
13 15 18 7 7 1 8 3 6 9 14 15 13 5 19 15 13 11 9 8 5 3 3 2 4 6 8 10 11 12 14 15 16 16 18 20 20 19 19 20 22 23 24 24
11 16 20 8 1 7 6 2 4 8 12 15 12 14 16 14 11 9 7 4 1 2 3 5 7 9 10 12 13 14 16 17 18 19 20 21 22 22 23 24 24 25 25 26
8 6 5 5 5 3 4 3 6 10 13 14 12 13 13 11 8 6 2 1 4 6 8 9 10 11 14 16 17 18 20 21 22 23 24 24 24 25 26 26 27 27 26 26
9 1 4 2 1 2 3 7 7 9 11 11 12 11 9 7 4 2 3 5 6 8 10 11 11 13 15 17 18 20 22 23 24 25 26 26 27 28 27 27 27 26 25 25
11 3 3 3 4 7 10 11 11 10 10 10 9 7 4 4 0 2 4 6 8 10 12 14 15 16 17 18 20 22 24 25 26 28 28 28 28 29 28 27 28 28 28 27
10 6 10 11 8 10 11 11 11 11 10 7 7 5 2 1 3 4 7 10 11 12 14 16 17 19 19 18 19 21 24 25 25 28 30 30 31 31 30 30 30 32 35 36
7 5 8 13 12 12 11 10 10 9 8 8 6 3 2 2 3 6 9 11 13 15 17 18 20 20 19 21 20 22 25 28 28 27 26 26 27 27 24 31 36 31 30 33
4 5 10 15 13 11 11 11 9 10 7 5 4 2 3 5 7 9 11 13 15 16 17 19 19 17 19 21 21 23 27 28 28 28 27 27 26 27 25 25 25 30 33 28
10 11 14 13 13 12 13 10 7 6 5 4 2 2 5 6 8 9 11 13 14 15 16 18 20 21 21 21 23 25 26 28 27 28 25 26 27 27 28 27 27 26 27 31
9 12 15 14 13 12 11 7 5 7 3 1 1 4 4 4 5 8 11 13 14 15 17 18 18 18 20 22 23 24 25 27 28 26 26 24 24 25 25 24 24 25 23 28
14 13 14 14 11 9 5 6 4 4 2 0 2 2 3 4 5 8 11 13 14 14 14 15 18 21 22 23 23 24 25 25 25 25 24 24 23 21 21 21 27 29 29 29
11 12 13 11 9 8 5 6 4 2 1 2 0 2 3 5 7 10 12 15 16 16 15 18 18 23 22 21 22 26 26 23 22 20 22 23 25 26 25 24 25 27 28 28
11 11 10 11 8 7 5 4 2 2 1 3 3 3 4 7 10 12 9 12 13 15 19 17 20 18 21 22 23 24 23 21 19 19 20 22 24 23 23 24 26 26 25 26
9 12 9 8 7 6 5 3 2 3 4 3 4 6 7 7 11 11 16 15 8 10 13 16 16 18 23 22 24 20 19 20 19 16 15 16 16 18 20 21 23 24 24 24
14 10 5 1 3 4 3 3 3 3 3 4 7 7 9 12 12 11 13 14 10 8 11 16 15 16 22 25 22 18 17 17 16 16 15 16 19 19 19 21 22 22 23 23
8 8 7 18 5 5 3 4 3 2 4 6 8 8 8 13 13 14 12 14 11 15 17 18 19 16 23 26 19 18 21 18 13 14 14 17 18 19 19 20 22 21 21 21
7 5 8 7 6 4 5 5 4 4 4 6 7 8 11 14 16 19 14 12 17 17 20 21 18 23 22 18 15 17 19 20 18 18 13 16 17 19 19 20 21 20 19 15
7 9 10 7 7 6 6 4 8 6 7 8 11 11 12 14 11 19 22 18 18 13 21 16 18 20 18 13 10 12 15 15 16 16 17 15 18 18 17 17 16 14 12 9
9 11 10 6 6 10 8 7 10 12 9 13 12 16 13 17 17 13 18 19 18 17 22 16 17 19 19 17 6 9 13 12 11 12 12 14 16 16 15 14 13 11 10 10
8 10 8 10 5 4 10 9 7 7 9 10 13 14 15 15 15 17 20 21 18 16 21 14 13 17 22 15 12 6 12 5 7 8 8 9 13 13 13 12 12 10 10 10
10 9 12 10 12 8 3 5 8 7 8 8 11 11 11 12 14 14 15 10 13 17 26 25 13 13 17 13 22 10 11 4 4 6 8 8 8 10 10 10 10 10 11 12
Wind_Direction
273 289 298 287 215 214 229 272 290 44 140 144 142 134 132 127 122 119 113 107 105 101 96 92 88 83 78 77 79 78 72 75 74 70 57 43 50 42 19 11 349 317 289 281
283 273 260 266 266 271 279 231 261 285 111 114 126 120 136 136 134 126 121 116 112 108 102 96 92 87 82 72 62 55 79 76 54 32 54 39 10 6 22 12 355 339 331 321
252 260 265 235 252 258 259 267 247 261 271 138 132 145 145 144 142 137 129 124 116 107 99 92 79 68 67 64 51 48 14 65 67 28 6 25 352 342 354 349 337 329 324 324
276 280 262 256 79 309 311 271 237 297 124 150 143 145 144 143 142 138 130 122 119 108 99 99 85 68 57 28 42 51 338 343 9 24 336 338 332 326 326 319 318 313 311 308
256 253 259 270 184 221 231 251 187 232 165 155 138 134 135 140 135 149 131 126 120 117 109 83 63 51 29 13 10 27 297 321 332 332 312 310 309 309 306 301 296 295 294 291
261 264 268 285 56 31 345 253 163 203 174 152 159 175 155 148 149 131 140 137 126 115 128 81 32 7 353 339 320 303 303 313 318 312 306 303 301 297 290 286 284 287 288 290
241 249 262 46 80 159 252 351 109 196 162 160 184 354 140 158 151 156 142 128 116 97 53 46 341 332 313 309 304 310 310 306 300 296 295 291 294 291 287 286 285 284 282 281
251 262 254 34 194 283 24 31 141 147 156 164 120 131 145 141 146 153 145 124 59 355 341 328 323 317 312 309 314 311 308 304 302 302 301 301 300 293 285 279 276 276 275 274
325 2 14 343 346 6 317 140 138 147 156 130 145 145 137 140 146 135 129 8 323 326 323 320 323 320 314 313 313 311 308 305 303 301 298 294 290 285 280 276 271 272 271 272
292 246 359 320 218 149 179 123 111 113 119 147 143 140 141 143 130 71 344 329 323 316 311 310 311 309 304 307 309 306 302 300 299 295 290 284 280 280 278 277 276 277 275 273
259 251 279 243 139 121 115 117 115 117 123 120 124 122 126 123 100 328 314 307 316 313 306 306 307 306 306 307 306 303 302 300 297 292 287 285 278 275 278 279 280 285 286 289
263 327 206 144 141 138 135 132 126 119 113 102 113 118 110 63 354 318 329 322 309 307 304 306 306 304 303 303 303 300 300 301 304 304 297 296 299 300 290 281 272 272 274 275
297 144 203 143 154 154 145 137 134 126 127 129 109 79 56 353 336 330 303 320 316 314 308 305 304 305 308 305 315 309 300 299 300 300 293 291 294 291 296 304 309 286 266 264
292 223 145 160 158 145 137 116 119 115 110 99 89 61 11 346 338 332 327 323 316 313 315 312 310 308 304 311 312 307 300 298 295 291 289 288 287 288 289 293 294 298 303 286
241 192 165 156 139 139 143 144 136 124 115 117 91 19 6 348 346 344 340 333 332 318 313 318 314 308 307 312 309 304 299 295 292 290 294 287 286 281 279 280 279 283 292 296
185 193 148 144 160 158 150 152 156 131 136 103 54 33 4 7 5 7 2 357 346 336 326 321 311 313 316 314 310 304 297 292 293 296 288 287 283 274 266 274 289 283 285 288
193 153 150 162 161 156 144 93 81 89 96 24 49 7 13 345 343 1 352 360 346 338 326 326 321 319 317 314 312 309 300 288 286 287 286 294 289 294 300 299 294 291 285 279
182 165 161 161 158 139 125 119 123 137 188 82 287 285 327 340 348 342 343 336 332 345 359 345 335 327 322 318 319 316 308 290 285 283 282 281 285 286 287 283 281 279 281 283
165 164 155 141 136 130 130 139 156 159 208 233 259 293 309 345 334 320 316 322 323 330 353 342 341 342 342 336 324 321 322 322 292 287 288 285 282 278 278 280 281 282 281 284
139 127 123 130 129 133 136 149 183 219 224 244 263 278 304 317 312 317 315 308 293 327 335 330 328 342 341 335 337 323 323 323 313 307 305 310 309 308 303 300 298 292 288 283
72 68 50 318 133 139 162 166 202 226 229 252 266 287 292 303 306 294 299 290 323 311 316 315 311 325 338 336 328 329 325 324 322 317 322 324 320 317 311 306 303 298 293 287
136 162 166 239 188 197 186 185 186 237 278 280 269 278 295 287 292 298 318 302 318 319 309 307 311 312 328 332 328 323 317 311 318 329 326 325 323 319 320 320 313 310 306 303
14 302 229 211 211 216 185 219 220 250 290 315 312 301 302 308 305 306 307 336 329 321 323 305 305 314 312 321 322 323 323 317 323 326 319 334 328 330 328 324 322 325 327 325
196 249 252 236 225 220 218 258 267 254 246 258 257 257 280 289 297 301 308 329 325 307 310 303 310 303 300 305 336 314 320 317 325 328 334 338 340 341 342 342 337 337 347 348
198 216 228 223 212 223 217 229 239 253 256 259 274 264 262 259 265 302 316 310 310 325 313 328 319 307 280 264 322 305 305 302 335 350 354 351 351 357 0 1 4 11 8 20
189 205 192 210 222 208 229 236 269 312 317 308 336 336 325 329 320 318 317 310 321 317 302 316 319 313 304 312 308 283 293 267 341 351 355 5 15 20 18 19 27 40 51 55
188 219 183 212 205 231 31 324 299 311 310 337 330 319 306 312 323 319 309 327 325 336 331 324 316 319 310 313 321 329 340 26 27 16 7 19 21 20 32 31 34 39 55 63